Location: Alston School (historical)
(35.5076°N, 89.8251°W)
Time: 23:46:13
(UTC+00:00)

Cosmos 2058 Rocket - Pass Details

Date: 09 December 2025
Orbit: 603 x 633 km, 82.5° (Epoch: 24 January)

Event Time Altitude Azimuth Distance (km) Brightness Sun altitude
Rises 23:34:09 0° 154° (SSE) 2,904 6.5 -9.7°
Reaches altitude 10° 23:36:45 10° 140° (SE) 2,005 5.5 -10.2°
Maximum altitude 23:40:12 22° 88° (E) 1,368 4.3 -10.8°
Enters shadow 23:43:07 13° 42° (NE) 1,853 5.0 -11.4°
